Location: *
(60.1759°S, 155.0663°W)
Time: 19:31:13
(UTC+00:00)

Okean O Rocket - Pass Details

Date: 17 September 2019
Orbit: 623 x 644 km, 98.2° (Epoch: 22 October)

Event Time Altitude Azimuth Distance (km) Brightness Sun altitude
Rises 14:52:08 0° 5° (N) 2,948 4.9 -12.1°
Reaches altitude 10° 14:54:23 10° 360° (N) 2,043 4.1 -11.8°
Maximum altitude 14:58:45 54° 282° (WNW) 789 1.7 -11.3°
Drops below altitude 10° 15:03:09 10° 203° (SSW) 2,054 4.1 -10.7°
Sets 15:05:25 0° 198° (SSW) 2,967 5.0 -10.5°
